Location: Bièvres
(48.7577°N, 2.2188°E)
Time: 15:21:21
(UTC+00:00)

Daily predictions for brighter satellites

Satellite Brightness Start Highest point End
(mag) Time Altitude Azimuth Time Altitude Azimuth Time Altitude Azimuth
USA 215 3.6 20:17:08 10° SE 20:23:37 64° SW 20:30:10 10° WNW
Cosmos 494 Rocket 4.1 20:18:53 10° NNW 20:24:11 80° ENE 20:29:25 10° SSE
NOSS 2-3 (D) 4.1 20:24:17 10° S 20:27:27 27° ESE 20:30:49 10° ENE
IRS-1A Rocket 4.4 20:23:35 10° SSE 20:29:13 72° ENE 20:35:00 10° NNW
Okean-O 2.9 20:25:09 10° S 20:29:32 71° WSW 20:33:57 10° NNW
ARGOS Delta rocket 4.4 20:25:36 10° S 20:30:13 61° W 20:35:08 10° NNW
Gbstr 26 Del rocket 3.2 20:27:47 10° WSW 20:32:03 87° NNW 20:37:18 10° ENE
Timation 2 Rocket 4.3 20:26:25 10° S 20:32:19 43° ESE 20:38:04 10° NE
CZ-4C R/B 3.2 20:29:46 10° NNE 20:33:26 54° E 20:36:55 10° S
Cosmos 1125 Rocket 4.4 20:30:01 10° SSE 20:34:36 31° E 20:39:13 10° NE
USA 276 1.9 20:36:32 10° WNW 20:39:27 86° SSW 20:42:29 10° ESE
Cosmos 2084 3.5 20:38:41 10° SSW 20:42:40 46° SE 20:46:29 10° NE
SPOT 3 Rocket 4.0 20:38:53 10° SE 20:43:53 51° ENE 20:48:57 10° N
NOSS 2-2 (E) 2.9 20:47:02 10° SSW 20:50:14 50° SE 20:53:17 10° NE
NOSS 2-2 (C) 2.6 20:47:22 10° SW 20:50:33 81° SE 20:53:43 10° NE
In-Cosmos 22 Rocket 4.3 20:47:03 10° S 20:52:40 62° E 20:58:13 10° NNE
Landsat 4 4.5 20:49:58 12° SE 20:52:49 33° ENE 20:55:55 10° N
Nadezhda 3 Rocket 4.0 20:47:06 10° N 20:53:18 84° E 20:59:27 10° S
BREEZE-M DEB (TANK) 3.3 20:51:23 10° W 20:54:08 71° SSW 21:01:26 10° ESE
Cosmos 1544 Rocket 4.4 20:50:32 10° N 20:54:33 35° ENE 20:58:03 13° SE
NOSS 2-3 (E) 3.2 20:52:49 10° SSW 20:56:23 58° SE 21:00:22 10° NE
Cosmos 1844 4.1 20:51:20 10° SW 20:57:08 71° WNW 21:02:55 10° NNE
Terra 1.8 20:53:01 10° SSE 20:57:44 87° ENE 21:02:30 10° NNW
Meteor 1-21 Rocket 4.4 20:58:37 10° SSW 21:04:09 79° WNW 21:09:44 10° N
USA 305 4.2 21:01:33 10° WNW 21:05:04 34° N 21:08:17 10° ENE
GP-B 4.4 21:03:00 10° NNW 21:07:08 40° W 21:11:14 10° SSW
ATLAS CENTAUR R/B 1.6 21:03:32 10° NW 21:07:27 62° SW 21:10:52 14° SSE
Cosmos 1437 Rocket 3.8 21:07:19 15° SE 21:09:26 25° E 21:12:27 10° NE
Cosmos 1833 Rocket 3.0 21:08:08 10° NNW 21:13:45 61° ENE 21:18:22 15° SE
Meteor 2-1 Rocket 4.2 21:08:04 10° NNW 21:13:45 89° E 21:18:59 12° S
NOSS 2-3 (C) 3.1 21:10:30 10° SW 21:14:07 84° SE 21:18:14 10° NE
Cosmos 1455 Rocket 3.6 21:10:45 10° NNW 21:15:04 56° W 21:19:20 10° S
Cosmos 1975 Rocket 3.2 21:14:08 10° S 21:18:36 83° W 21:23:05 10° N
Cosmos 1025 Rocket 4.3 21:15:06 10° SW 21:19:07 41° WNW 21:23:09 10° N
Cosmos 44 3.9 21:14:32 10° S 21:19:28 41° ESE 21:24:13 10° NE
Orbus 7S? 3.9 21:17:22 10° WNW 21:19:47 28° SW 21:21:20 17° S
Lacrosse 5 2.6 21:16:40 10° WSW 21:21:39 57° NNW 21:26:40 10° NE
ERS-1 Rocket 3.7 21:18:41 10° S 21:23:31 49° W 21:28:23 10° NNW
Spot 2 Rocket 3.8 21:19:30 10° S 21:24:29 65° WSW 21:29:35 10° NNW
Cosmos 220 Rocket 3.9 21:21:03 10° NNW 21:25:13 82° ENE 21:28:09 19° SSE
Cosmos 2082 Rocket 3.6 21:21:53 10° NNW 21:26:42 28° NE 21:31:30 10° ESE
NOSS 2-2 (D) 3.1 21:24:49 10° SW 21:28:02 65° NW 21:31:10 10° NE
ATLAS 5 CENTAUR R/B 3.5 21:25:18 10° W 21:28:15 27° NNW 21:31:34 10° NNE
USA 307 4.1 21:24:39 10° WNW 21:28:21 38° N 21:31:51 10° ENE
Cosmos 2218 Rocket 4.3 21:23:42 14° SSE 21:28:39 48° E 21:34:32 10° NNE
Landsat 5 3.9 21:26:50 10° NNE 21:31:07 48° E 21:34:10 18° S
Cosmos 1844 Rocket 4.3 21:28:15 10° WSW 21:33:22 36° NW 21:38:31 10° NNE
Cosmos 2278 Rocket 3.1 21:31:13 18° SSE 21:34:18 28° ESE 21:39:04 10° NE
Cosmos 1606 2.9 21:31:57 10° NNW 21:35:27 59° W 21:38:05 16° S
MetOp-A 3.7 21:35:02 20° SSE 21:38:15 69° ENE 21:42:33 10° N
Cosmos 2298 Rocket 4.1 21:33:31 11° S 21:38:34 57° ESE 21:43:48 10° NNE
Cosmos 2341 Rocket 4.0 21:33:38 12° S 21:39:33 73° E 21:45:54 10° NNE
Cosmos 614 Rocket 4.0 21:36:10 10° NNW 21:41:14 66° ENE 21:44:35 21° SE
H-2A R/B 4.4 21:44:33 11° E 21:46:44 16° ENE 21:49:08 10° NNE
Cosmos 1869 4.0 21:43:36 10° NNW 21:47:17 47° W 21:50:08 16° SSW
Cosmos 1536 Rocket 3.6 21:47:10 22° SSE 21:49:48 58° E 21:54:03 10° NNE
CZ-4C R/B 4.1 21:44:05 10° NW 21:50:01 35° NNE 21:57:12 10° E
Ariane Rocket 4.0 21:47:25 11° SSW 21:51:58 42° W 21:56:46 10° NNW
ISS -2.8 21:49:58 10° WNW 21:53:12 49° N 21:56:27 10° ENE
COSMOS 2406 4.3 21:51:16 10° NNW 21:56:28 35° NE 22:00:48 14° ESE
USA 290 3.7 21:58:15 21° E 21:58:15 21° E 22:00:34 10° NE
ARIANE 5 R/B 3.2 21:58:54 24° SE 22:01:15 47° ENE 22:05:34 10° N
GENESIS II 4.2 21:58:40 10° NW 22:02:11 56° SW 22:03:31 33° S
Cosmos 1269 Rocket 4.5 21:58:43 10° NNW 22:03:54 52° ENE 22:07:06 22° SE
BREEZE-M DEB (TANK) 3.6 21:53:51 10° WNW 22:04:14 45° SW 22:06:11 26° SSE
ATLAS 3B R/B 3.7 22:01:26 21° SSE 22:04:36 30° ESE 22:10:53 10° NE
Cosmos 1727 Rocket 4.2 21:58:33 10° N 22:04:52 61° ENE 22:08:48 23° SSE
Cosmos 2228 3.4 22:01:27 10° NNW 22:05:35 57° W 22:08:06 22° SSW
Geosat 4.4 22:05:05 10° NNE 22:10:04 65° NW 22:15:01 10° SW
Cosmos 1943 Rocket 2.9 22:08:20 25° SSE 22:10:39 34° ESE 22:15:42 10° NE
USA 276 3.5 22:10:58 10° W 22:13:09 23° SW 22:13:09 23° SW
Cosmos 1821 Rocket 4.1 22:09:49 23° SSE 22:13:52 64° E 22:20:10 10° NNE
Gbstr 26 Del rocket 3.9 22:14:21 10° W 22:19:03 62° N 22:24:54 10° E
Cosmos 2058 4.2 22:19:03 22° ESE 22:19:58 24° E 22:23:19 10° NE
Cosmos 2150 Rocket 4.3 22:14:53 10° SSW 22:20:15 70° WNW 22:25:44 10° NNE
ALOS 2 4.0 22:19:19 19° ESE 22:21:27 29° ENE 22:25:15 10° N
Cosmos 2084 Rocket 3.5 22:21:37 10° NW 22:25:35 62° NE 22:27:21 30° ESE
Spot 4 4.5 22:23:23 25° SE 22:25:48 46° ENE 22:30:27 10° N
NOSS 3-1 (C) 2.9 22:24:27 13° SSW 22:28:54 76° SE 22:34:49 10° NE
SeaSat 1 3.0 22:26:56 22° ESE 22:29:52 51° NE 22:34:38 10° NNW
Cosmos 1812 2.6 22:32:08 10° N 22:35:40 60° ENE 22:36:28 45° SE
Terra 4.3 22:33:57 10° WSW 22:35:59 13° W 22:38:02 10° WNW
USA 305 3.8 22:34:31 10° WNW 22:37:52 35° N 22:40:34 11° ENE
Cosmos 1238 Rocket 3.9 22:38:11 10° NNE 22:41:10 28° ENE 22:42:01 25° E
Aureole 2 4.1 22:41:11 57° SSW 22:41:45 88° WNW 22:45:08 10° NNE
BREEZE-M R/B 3.8 22:37:51 10° WSW 22:42:11 79° SSE 22:56:49 10° ENE
PSLV R/B 3.8 22:39:39 10° NNE 22:43:39 70° ESE 22:44:50 43° S
Cosmos 1892 Rocket 3.6 22:45:05 38° SSE 22:46:39 68° E 22:51:05 10° NNE
Cosmos 1140 Rocket 3.7 22:47:18 10° NNW 22:52:23 60° ENE 22:54:49 30° SE
MINOTAUR 4 R/B 3.5 22:54:24 10° NNE 22:57:02 67° ENE 22:57:02 67° ENE
Cosmos 1833 Rocket 4.2 22:52:44 10° NW 22:57:14 25° WSW 23:00:03 17° SW
Cosmos 2239 Rocket 4.4 22:55:30 28° S 22:59:01 88° W 23:05:18 10° N
SL-08 R/B 4.4 22:57:34 28° S 23:01:00 87° W 23:07:10 10° N
BREEZE-M DEB (TANK) 3.5 22:58:33 10° W 23:01:27 81° SSW 23:09:17 10° ESE
USA 307 3.7 22:58:27 10° WNW 23:02:07 41° NNE 23:05:28 10° E
Cosmos-2242 3.9 23:00:36 10° N 23:04:34 38° ENE 23:05:51 30° ESE
Cosmos 2123 Rocket 4.0 22:58:24 10° N 23:04:43 80° E 23:07:51 32° SSE
Cosmos 1606 Rocket 4.5 23:01:23 10° NNW 23:05:24 38° W 23:07:01 27° SW
Lacrosse 5 3.7 23:00:51 10° WNW 23:05:25 33° N 23:10:00 10° ENE
CENTAUR R/B 4.5 22:58:25 10° NW 23:05:28 37° NNE 23:13:34 10° E
NOSS 3-1 (A) 3.0 23:03:57 31° SSW 23:06:20 68° SE 23:12:14 10° NE
Cosmos 1726 Rocket 4.1 23:03:27 10° NNW 23:07:39 49° W 23:09:05 34° SW
NOSS 8 (F) 4.2 23:05:35 10° NW 23:08:41 86° SW 23:09:06 67° SSE
Cosmos 2082 Rocket 2.3 23:05:39 10° NNW 23:11:13 63° WSW 23:13:28 35° S
Cosmos 1515 4.2 23:11:11 10° N 23:14:30 40° ENE 23:14:57 38° E
Cosmos 2278 Rocket 2.8 23:12:59 12° SW 23:18:05 54° NW 23:23:38 10° NNE
ULPM Upper Stage 2.7 23:15:34 10° NW 23:19:55 73° SW 23:20:59 49° SSE
Cosmos 2369 Rocket 3.4 23:19:37 23° ESE 23:20:53 25° ESE 23:25:23 10° NE
H-2A R/B 2.6 23:20:31 45° SW 23:21:17 54° WSW 23:25:04 10° NNW
PSLV R/B 4.0 23:17:10 10° NNE 23:21:22 47° E 23:22:20 40° SE
Cosmos 489 Rocket 4.4 23:24:25 33° S 23:27:18 74° ESE 23:33:32 10° NNE
ISS -3.9 23:26:49 10° WNW 23:30:09 89° S 23:30:09 89° S
USA 290 4.2 23:30:56 18° W 23:32:20 25° WNW 23:35:03 10° N
Cosmos 2058 Rocket 3.5 23:29:15 10° NNW 23:33:28 50° W 23:34:37 38° SW
Cosmos 1782 2.6 23:30:11 10° N 23:34:00 81° E 23:34:35 61° SSE
USA 229 DEB 4.0 23:32:18 33° SSE 23:34:11 41° ESE 23:40:22 10° NE
USA 229 4.0 23:32:27 33° SSE 23:34:18 41° ESE 23:40:29 10° NE
Cosmos 1862 4.1 23:35:38 34° ESE 23:36:03 36° E 23:39:36 10° NNE
CRYOSAT 2 4.3 23:31:22 10° N 23:36:17 88° W 23:37:58 42° S
ARIANE 5 R/B 4.4 23:36:22 18° WSW 23:37:53 21° W 23:41:18 10° NW
Cosmos 1378 2.9 23:34:52 10° N 23:38:05 62° ENE 23:38:06 62° E
CZ-4C R/B 3.0 23:32:15 10° NW 23:39:19 88° NE 23:45:35 20° SE
COSMOS 2455 4.1 23:34:28 10° NNW 23:40:04 37° NE 23:45:38 10° ESE
Meteor 2-2 Rocket 4.2 23:35:08 10° N 23:40:54 84° ENE 23:43:24 36° SSE
COSMOS 2406 3.7 23:35:30 10° NW 23:40:56 47° WSW 23:42:50 34° SSW
Cosmos 1934 Rocket 4.1 23:39:12 30° SSW 23:42:30 69° WNW 23:48:43 10° N
Cosmos 2221 3.9 23:41:26 10° N 23:45:11 29° ENE 23:46:52 22° ESE
Cosmos 2285 Rocket 4.1 23:45:31 10° NNW 23:51:59 74° ENE 23:55:34 28° SE
Cosmos 1943 Rocket 3.1 23:49:48 15° WSW 23:54:16 45° NW 23:59:41 10° NNE
